Location: Asheville, NC
(35.6000°N, 82.5500°W)
Time: 01:03:51
(UTC-04:00)

Vanguard 1 - Pass Details

Date: 13 December 2017
Orbit: 650 x 3833 km, 34.3° (Epoch: 23 June)

Event Time Altitude Azimuth Distance (km) Brightness Sun altitude
Rises 10:18:41 0° 248° (WSW) 7,954 14.6 24.1°
Reaches altitude 10° 10:24:21 10° 247° (WSW) 6,811 14.3 24.7°
Maximum altitude 10:45:53 77° 166° (SSE) 2,779 13.0 26.7°
Drops below altitude 10° 10:58:06 10° 83° (E) 4,171 13.5 27.8°
Sets 11:00:41 0° 82° (E) 4,849 13.8 27.9°
